This is the latest recevied weather packets stored in our database for station/object KB1RMA-13. If no packets are shown the sender has not sent any weather packets the latest 10 day(s).
| Time | Temp. | Humidity | Pressure | Rain* | Wind** | Luminosity | Snow |
|---|---|---|---|---|---|---|---|
| 1777504743 | 6.67° C | 96% | 1014.6 hPa | 0 mm | - | 6 W/m² | - |
| 1777504441 | 6.67° C | 96% | 1014.5 hPa | 0 mm | - | 12 W/m² | - |
| 1777504136 | 6.67° C | 96% | 1014.4 hPa | 0 mm | - | 12 W/m² | - |
| 1777503831 | 6.67° C | 96% | 1014.3 hPa | 0 mm | - | 15 W/m² | - |
| 1777503528 | 6.67° C | 96% | 1014.3 hPa | 0 mm | - | 15 W/m² | - |
| 1777503224 | 6.67° C | 96% | 1014.3 hPa | 0 mm | - | 20 W/m² | - |
| 1777502922 | 6.67° C | 95% | 1014.6 hPa | 0 mm | - | 28 W/m² | - |
| 1777502619 | 6.67° C | 95% | 1014.4 hPa | 0 mm | - | 28 W/m² | - |
| 1777502316 | 6.67° C | 95% | 1014.5 hPa | 0 mm | - | 37 W/m² | - |
| 1777502012 | 6.67° C | 95% | 1014.3 hPa | 0 mm | - | 37 W/m² | - |
| 1777501709 | 7.22° C | 95% | 1014.4 hPa | 0 mm | - | 51 W/m² | - |
| 1777501407 | 7.22° C | 95% | 1014.5 hPa | 0 mm | - | 44 W/m² | - |
| 1777501104 | 7.22° C | 94% | 1014.3 hPa | 0 mm | - | 36 W/m² | - |
| 1777500802 | 7.22° C | 94% | 1014.3 hPa | 0 mm | - | 46 W/m² | - |
| 1777500499 | 7.22° C | 94% | 1014.6 hPa | 0 mm | - | 57 W/m² | - |
| 1777500195 | 7.22° C | 94% | 1014.9 hPa | 0 mm | - | 56 W/m² | - |
| 1777499892 | 7.22° C | 94% | 1014.9 hPa | 0 mm | - | 86 W/m² | - |
| 1777499589 | 7.22° C | 94% | 1014.9 hPa | 0 mm | - | 96 W/m² | - |
| 1777499286 | 7.22° C | 94% | 1014.6 hPa | 0 mm | - | 98 W/m² | - |
| 1777498984 | 7.22° C | 94% | 1014.7 hPa | 0 mm | - | 93 W/m² | - |
| 1777498679 | 7.22° C | 94% | 1014.8 hPa | 0 mm | - | 103 W/m² | - |
| 1777498376 | 7.22° C | 94% | 1014.7 hPa | 0 mm | - | 67 W/m² | - |
| 1777498073 | 7.22° C | 94% | 1014.8 hPa | 0 mm | - | 132 W/m² | - |
| 1777497770 | 7.22° C | 94% | 1014.8 hPa | 0 mm | - | 92 W/m² | - |
| 1777497467 | 7.22° C | 94% | 1014.8 hPa | 0 mm | - | 111 W/m² | - |
* Rain latest hour (hover to see other rain measurements)
** Current wind speed in m/s (hover to see current wind gust speed)